Regional Weather Roundup
Issued by NWS Charleston, WV

Home | Current Version | Previous Version | Graphics & Text | Print | Product List | Glossary On
Versions: 1 2 3 4 5 6 7 8 9 10 11 12 13 14 15 16 17 18 19 20 21 22 23 24 25 26 27 28 29 30 31 32 33 34 35 36 37 38 39 40 41 42 43 44 45 46 47 48 49 50
000
ASUS41 KRLX 210610
RWRRLX
West Virginia Regional Weather Roundup
National Weather Service Charleston WV
200 AM EDT MON JUL 21 2014

Note: "fair" indicates few or no clouds below 12,000 feet with no
significant weather and/or obstructions to visibility.

WVZ003-210700-
Northern Panhandle of West Virginia

CITY           SKY/WX    TMP DP  RH WIND       PRES   REMARKS
WHEELING       PTCLDY    69  66  90 CALM      30.09S
$$

WVZ009-210700-
Northwest West Virginia

CITY           SKY/WX    TMP DP  RH WIND       PRES   REMARKS
PARKERSBURG    MOCLDY    68  67  96 CALM      30.10S FOG
$$

WVZ006-210700-
Western West Virginia

CITY           SKY/WX    TMP DP  RH WIND       PRES   REMARKS
HUNTINGTON     CLOUDY    68  68 100 MISG      30.06S FOG
$$

WVZ015-210700-
West Central West Virginia

CITY           SKY/WX    TMP DP  RH WIND       PRES   REMARKS
CHARLESTON     MOCLDY    68  68 100 CALM      30.07S FOG
$$

WVZ031-210700-
North Central West Virginia

CITY           SKY/WX    TMP DP  RH WIND       PRES   REMARKS
CLARKSBURG     CLOUDY    70  66  87 SE3       30.10S
MORGANTOWN     CLOUDY    71  66  84 E3        30.12R
$$

WVZ035-042-045-210700-
South Central West Virginia

CITY           SKY/WX    TMP DP  RH WIND       PRES   REMARKS
BECKLEY        CLOUDY    68  63  84 S9        30.16R
BLUEFIELD      CLOUDY    70  63  78 SE5       30.19S
LEWISBURG      CLOUDY    68  64  85 CALM      30.18S
$$

WVZ047-210700-
Northern Mountains of West Virginia

CITY           SKY/WX    TMP DP  RH WIND       PRES   REMARKS
ELKINS         CLOUDY    66  64  93 CALM      30.16R FOG
$$

WVZ052-210700-
Eastern Panhandle of West Virginia

CITY           SKY/WX    TMP DP  RH WIND       PRES   REMARKS
MARTINSBURG    CLOUDY    71  64  78 CALM      30.13S
PETERSBURG     MOCLDY    67  61  81 CALM      30.13F
$$


USA.gov is the U.S. government's official web portal to all federal, state and local government web resources and services.